• In Deutschland
  • Länderverzeichnis
  • Für 7 Tage
  • Wassertemperatur
  • Satellitenkarten
  • Wetterkarte
  • Widgets
  • user-avatar
    Anmelden

    Stündliche Wetter Haifa

    Heute, 20 Oktober, Samstag

    Zeit Temperatur Niederschläge Wind Luftdruck Luftfeuchtigkeit
    00:00 +25°C° 0 mm 2 m/S 756 mmHg 80%
    01:00 +25°C° 0 mm 2 m/S 756 mmHg 81%
    02:00 +25°C° 0 mm 2 m/S 756 mmHg 82%
    03:00 +25°C° 0.2 mm 1 m/S 756 mmHg 83%
    04:00 +25°C° 0.2 mm 1 m/S 756 mmHg 84%
    05:00 +24°C° 0.2 mm 1 m/S 756 mmHg 84%
    06:00 +25°C° 0.6 mm 1 m/S 756 mmHg 81%
    07:00 +26°C° 0.6 mm 1 m/S 756 mmHg 77%
    08:00 +26°C° 0 mm 1 m/S 756 mmHg 73%
    09:00 +27°C° 0.2 mm 1 m/S 756 mmHg 67%
    10:00 +28°C° 0.2 mm 2 m/S 756 mmHg 61%
    11:00 +29°C° 0.2 mm 2 m/S 756 mmHg 55%
    12:00 +30°C° 0.2 mm 3 m/S 756 mmHg 55%
    13:00 +30°C° 0.2 mm 3 m/S 756 mmHg 54%
    14:00 +30°C° 0 mm 3 m/S 756 mmHg 52%
    15:00 +29°C° 0.3 mm 3 m/S 756 mmHg 56%
    16:00 +28°C° 0.3 mm 3 m/S 756 mmHg 60%
    17:00 +28°C° 0.3 mm 3 m/S 756 mmHg 64%
    18:00 +27°C° 0.1 mm 3 m/S 756 mmHg 67%
    19:00 +27°C° 0.1 mm 2 m/S 756 mmHg 69%
    20:00 +26°C° 0.1 mm 2 m/S 756 mmHg 71%
    21:00 +26°C° 0.1 mm 2 m/S 756 mmHg 72%
    22:00 +26°C° 0.1 mm 1 m/S 756 mmHg 73%
    23:00 +25°C° 0.1 mm 1 m/S 755 mmHg 74%

    Morgen, 21 Oktober, Sonntag

    Zeit Temperatur Niederschläge Wind Luftdruck Luftfeuchtigkeit
    00:00 +25°C° 0 mm 2 m/S 755 mmHg 75%
    01:00 +25°C° 0 mm 2 m/S 755 mmHg 76%
    02:00 +24°C° 0 mm 2 m/S 755 mmHg 77%
    03:00 +24°C° 0.1 mm 2 m/S 755 mmHg 78%
    04:00 +24°C° 0.1 mm 2 m/S 755 mmHg 78%
    05:00 +24°C° 0.1 mm 2 m/S 755 mmHg 78%
    06:00 +25°C° 0.1 mm 3 m/S 755 mmHg 74%
    07:00 +25°C° 0.1 mm 3 m/S 755 mmHg 71%
    08:00 +26°C° 0.1 mm 3 m/S 756 mmHg 67%
    09:00 +27°C° 0.1 mm 3 m/S 756 mmHg 63%
    10:00 +28°C° 0.1 mm 3 m/S 756 mmHg 60%
    11:00 +29°C° 0.1 mm 3 m/S 756 mmHg 56%
    12:00 +29°C° 0.2 mm 3 m/S 756 mmHg 56%
    13:00 +29°C° 0.2 mm 4 m/S 756 mmHg 56%
    14:00 +29°C° 0.2 mm 4 m/S 756 mmHg 56%
    15:00 +29°C° 0 mm 3 m/S 756 mmHg 59%
    16:00 +28°C° 0 mm 3 m/S 756 mmHg 63%
    17:00 +27°C° 0 mm 2 m/S 756 mmHg 67%
    18:00 +27°C° 0 mm 2 m/S 756 mmHg 69%
    19:00 +26°C° 0 mm 1 m/S 756 mmHg 71%
    20:00 +26°C° 0 mm 1 m/S 757 mmHg 74%
    21:00 +25°C° 0 mm 1 m/S 757 mmHg 75%
    22:00 +25°C° 0 mm 1 m/S 757 mmHg 77%
    23:00 +25°C° 0 mm 1 m/S 757 mmHg 78%

    übermorgen, 22 Oktober, Montag

    Zeit Temperatur Niederschläge Wind Luftdruck Luftfeuchtigkeit
    00:00 +24°C° 0 mm 1 m/S 757 mmHg 79%
    01:00 +24°C° 0 mm 1 m/S 757 mmHg 79%
    02:00 +24°C° 0 mm 1 m/S 757 mmHg 79%
    03:00 +24°C° 0 mm 2 m/S 757 mmHg 78%
    04:00 +24°C° 0 mm 2 m/S 757 mmHg 77%
    05:00 +23°C° 0 mm 2 m/S 757 mmHg 76%
    06:00 +25°C° 0 mm 3 m/S 757 mmHg 68%
    07:00 +26°C° 0 mm 3 m/S 758 mmHg 61%
    08:00 +27°C° 0 mm 3 m/S 758 mmHg 54%
    09:00 +29°C° 0 mm 3 m/S 758 mmHg 45%
    10:00 +30°C° 0 mm 3 m/S 758 mmHg 36%
    11:00 +33°C° 0 mm 3 m/S 757 mmHg 27%
    12:00 +34°C° 0 mm 3 m/S 757 mmHg 26%
    13:00 +34°C° 0 mm 3 m/S 756 mmHg 25%
    14:00 +35°C° 0 mm 3 m/S 756 mmHg 24%
    15:00 +34°C° 0 mm 4 m/S 756 mmHg 26%
    16:00 +33°C° 0 mm 4 m/S 755 mmHg 28%
    17:00 +32°C° 0 mm 4 m/S 755 mmHg 30%
    18:00 +32°C° 0 mm 4 m/S 755 mmHg 30%
    19:00 +30°C° 0 mm 4 m/S 756 mmHg 29%
    20:00 +30°C° 0 mm 4 m/S 756 mmHg 28%
    21:00 +29°C° 0 mm 4 m/S 756 mmHg 28%
    22:00 +29°C° 0 mm 4 m/S 756 mmHg 28%
    23:00 +29°C° 0 mm 4 m/S 756 mmHg 28%

    23 Oktober, Dienstag

    Zeit Temperatur Niederschläge Wind Luftdruck Luftfeuchtigkeit
    00:00 +28°C° 0.1 mm 4 m/S 756 mmHg 32%
    01:00 +28°C° 0.1 mm 4 m/S 755 mmHg 36%
    02:00 +28°C° 0.1 mm 4 m/S 755 mmHg 40%
    03:00 +27°C° 0.2 mm 5 m/S 755 mmHg 41%
    04:00 +27°C° 0.2 mm 5 m/S 755 mmHg 42%
    05:00 +27°C° 0.2 mm 5 m/S 755 mmHg 43%
    06:00 +28°C° 0.1 mm 5 m/S 755 mmHg 40%
    07:00 +29°C° 0.1 mm 5 m/S 755 mmHg 38%
    08:00 +30°C° 0.1 mm 6 m/S 756 mmHg 36%
    09:00 +32°C° 0 mm 5 m/S 756 mmHg 33%
    10:00 +34°C° 0 mm 5 m/S 755 mmHg 29%
    11:00 +35°C° 0 mm 4 m/S 755 mmHg 25%
    12:00 +36°C° 0 mm 4 m/S 755 mmHg 25%
    13:00 +36°C° 0 mm 4 m/S 754 mmHg 25%
    14:00 +36°C° 0 mm 3 m/S 754 mmHg 24%
    15:00 +35°C° 0 mm 3 m/S 754 mmHg 29%
    16:00 +34°C° 0 mm 2 m/S 754 mmHg 33%
    17:00 +31°C° 0 mm 2 m/S 754 mmHg 38%
    18:00 +31°C° 0 mm 2 m/S 754 mmHg 38%
    19:00 +30°C° 0 mm 1 m/S 754 mmHg 39%
    20:00 +30°C° 0 mm 1 m/S 754 mmHg 39%
    21:00 +30°C° 0 mm 2 m/S 754 mmHg 37%
    22:00 +30°C° 0 mm 2 m/S 754 mmHg 36%
    23:00 +30°C° 0 mm 3 m/S 754 mmHg 34%

    24 Oktober, Mittwoch

    Zeit Temperatur Niederschläge Wind Luftdruck Luftfeuchtigkeit
    00:00 +29°C° 0 mm 2 m/S 754 mmHg 34%
    01:00 +29°C° 0 mm 2 m/S 753 mmHg 34%
    02:00 +29°C° 0 mm 2 m/S 753 mmHg 34%
    03:00 +28°C° 0.2 mm 3 m/S 753 mmHg 36%
    04:00 +28°C° 0.2 mm 3 m/S 753 mmHg 38%
    05:00 +28°C° 0.2 mm 4 m/S 753 mmHg 40%
    06:00 +28°C° 0.1 mm 4 m/S 753 mmHg 39%
    07:00 +28°C° 0.1 mm 4 m/S 754 mmHg 38%
    08:00 +29°C° 0.1 mm 4 m/S 754 mmHg 37%
    09:00 +30°C° 0 mm 5 m/S 753 mmHg 35%
    10:00 +32°C° 0 mm 5 m/S 753 mmHg 32%
    11:00 +34°C° 0 mm 5 m/S 753 mmHg 30%
    12:00 +33°C° 0 mm 6 m/S 752 mmHg 34%
    13:00 +33°C° 0 mm 7 m/S 752 mmHg 37%
    14:00 +33°C° 0 mm 7 m/S 752 mmHg 41%
    15:00 +32°C° 0.2 mm 6 m/S 752 mmHg 47%
    16:00 +29°C° 0.2 mm 6 m/S 752 mmHg 54%
    17:00 +28°C° 0.2 mm 5 m/S 752 mmHg 60%
    18:00 +28°C° 0.4 mm 4 m/S 752 mmHg 61%
    19:00 +27°C° 0.4 mm 4 m/S 752 mmHg 63%
    20:00 +27°C° 0.4 mm 3 m/S 753 mmHg 64%
    21:00 +26°C° 0.4 mm 3 m/S 753 mmHg 65%
    22:00 +26°C° 0.4 mm 2 m/S 753 mmHg 66%
    23:00 +26°C° 0.4 mm 2 m/S 752 mmHg 67%

    25 Oktober, Donnerstag

    Zeit Temperatur Niederschläge Wind Luftdruck Luftfeuchtigkeit
    00:00 +26°C° 0.3 mm 2 m/S 752 mmHg 66%
    01:00 +25°C° 0.3 mm 3 m/S 752 mmHg 65%
    02:00 +25°C° 0.3 mm 3 m/S 752 mmHg 64%
    03:00 +25°C° 0.4 mm 4 m/S 751 mmHg 64%
    04:00 +25°C° 0.4 mm 5 m/S 751 mmHg 63%
    05:00 +23°C° 0.4 mm 5 m/S 751 mmHg 62%
    06:00 +25°C° 0.4 mm 5 m/S 751 mmHg 58%
    07:00 +26°C° 0.4 mm 6 m/S 751 mmHg 53%
    08:00 +27°C° 0.4 mm 6 m/S 751 mmHg 48%
    09:00 +29°C° 0.1 mm 7 m/S 751 mmHg 44%
    10:00 +31°C° 0.1 mm 9 m/S 751 mmHg 39%
    11:00 +33°C° 0.1 mm 10 m/S 750 mmHg 34%
    12:00 +32°C° 0.1 mm 11 m/S 750 mmHg 38%
    13:00 +31°C° 0.1 mm 11 m/S 750 mmHg 41%
    14:00 +29°C° 0.1 mm 12 m/S 750 mmHg 45%
    15:00 +28°C° 0.2 mm 11 m/S 750 mmHg 47%
    16:00 +28°C° 0.2 mm 10 m/S 750 mmHg 49%
    17:00 +27°C° 0.2 mm 9 m/S 750 mmHg 51%
    18:00 +27°C° 0.2 mm 8 m/S 751 mmHg 56%
    19:00 +26°C° 0.2 mm 8 m/S 751 mmHg 60%
    20:00 +24°C° 0.2 mm 8 m/S 751 mmHg 65%
    21:00 +24°C° 0.8 mm 8 m/S 751 mmHg 67%
    22:00 +24°C° 0.8 mm 8 m/S 752 mmHg 70%
    23:00 +23°C° 0.8 mm 8 m/S 752 mmHg 72%
    Mehr zeigen